Year,Month,Day,Hour,Minute,Value (Times are PST for temperature in C)
2019,04,19,08,24,12.30
2019,04,19,08,25,12.30
2019,04,19,08,26,12.30
2019,04,19,08,27,12.30
2019,04,19,08,28,12.30
2019,04,19,08,29,12.30
2019,04,19,08,30,12.40
2019,04,19,08,31,12.40
2019,04,19,08,32,12.40
2019,04,19,08,33,12.40
2019,04,19,08,34,12.40
2019,04,19,08,35,12.40
2019,04,19,08,36,12.40
2019,04,19,08,37,12.40
2019,04,19,08,38,12.50
2019,04,19,08,39,12.50
2019,04,19,08,40,12.50
2019,04,19,08,41,12.50
2019,04,19,08,42,12.50
2019,04,19,08,43,12.50
2019,04,19,08,44,12.50
2019,04,19,08,45,12.50
2019,04,19,08,46,12.60
2019,04,19,08,47,12.60
2019,04,19,08,48,12.60
2019,04,19,08,49,12.60
2019,04,19,08,50,12.60
2019,04,19,08,51,12.60
2019,04,19,08,52,12.70
2019,04,19,08,53,12.70
2019,04,19,08,54,12.70
2019,04,19,08,55,12.70
2019,04,19,08,56,12.70
2019,04,19,08,57,12.80
2019,04,19,08,58,12.80
2019,04,19,08,59,12.80
2019,04,19,09,00,12.80
2019,04,19,09,01,12.80
2019,04,19,09,02,12.80
2019,04,19,09,03,12.80
2019,04,19,09,04,12.80
2019,04,19,09,05,12.80
2019,04,19,09,06,12.90
2019,04,19,09,07,12.90
2019,04,19,09,08,12.90
2019,04,19,09,09,13.00
2019,04,19,09,10,13.00
2019,04,19,09,11,13.00
2019,04,19,09,12,13.00
2019,04,19,09,13,13.00
2019,04,19,09,14,13.10
2019,04,19,09,15,13.10
2019,04,19,09,16,13.10
2019,04,19,09,17,13.10
2019,04,19,09,18,13.10
2019,04,19,09,19,13.10
2019,04,19,09,20,13.10
2019,04,19,09,21,13.10
2019,04,19,09,22,13.10
2019,04,19,09,23,13.10
2019,04,19,09,24,13.10
2019,04,19,09,25,13.10
2019,04,19,09,26,13.10
2019,04,19,09,27,13.10
2019,04,19,09,28,13.10
2019,04,19,09,29,13.10
2019,04,19,09,30,13.00
2019,04,19,09,31,13.10
2019,04,19,09,32,13.10
2019,04,19,09,33,13.10
2019,04,19,09,34,13.10
2019,04,19,09,35,13.20
2019,04,19,09,36,13.20
2019,04,19,09,37,13.20
2019,04,19,09,38,13.20
2019,04,19,09,39,13.30
2019,04,19,09,40,13.30
2019,04,19,09,41,13.30
2019,04,19,09,42,13.30
2019,04,19,09,43,13.30
2019,04,19,09,44,13.30
2019,04,19,09,45,13.40
2019,04,19,09,46,13.40
2019,04,19,09,47,13.40
2019,04,19,09,48,13.40
2019,04,19,09,49,13.40
2019,04,19,09,50,13.40
2019,04,19,09,51,13.30
2019,04,19,09,52,13.30
2019,04,19,09,53,13.30
2019,04,19,09,54,13.20
2019,04,19,09,55,13.20
2019,04,19,09,56,13.20
2019,04,19,09,57,13.10
2019,04,19,09,58,13.10
2019,04,19,09,59,13.00
2019,04,19,10,00,13.00
2019,04,19,10,01,13.00
2019,04,19,10,02,13.10
2019,04,19,10,03,13.10
2019,04,19,10,04,13.10
2019,04,19,10,05,13.10
2019,04,19,10,06,13.10
2019,04,19,10,07,13.10
2019,04,19,10,08,13.10
2019,04,19,10,09,13.10
2019,04,19,10,10,13.10
2019,04,19,10,11,13.10
2019,04,19,10,12,13.10
2019,04,19,10,13,13.20
2019,04,19,10,14,13.20
2019,04,19,10,15,13.30
2019,04,19,10,16,13.30
2019,04,19,10,17,13.40
2019,04,19,10,18,13.40
2019,04,19,10,19,13.50
2019,04,19,10,20,13.50
2019,04,19,10,21,13.60
2019,04,19,10,22,13.60
2019,04,19,10,23,13.60
2019,04,19,10,24,13.70
2019,04,19,10,25,13.70
2019,04,19,10,26,13.80
2019,04,19,10,27,13.80
2019,04,19,10,28,13.90
2019,04,19,10,29,14.00
2019,04,19,10,30,14.00
2019,04,19,10,31,14.10
2019,04,19,10,32,14.20
2019,04,19,10,33,14.20
2019,04,19,10,34,14.20
2019,04,19,10,35,14.30
2019,04,19,10,36,14.30
2019,04,19,10,37,14.40
2019,04,19,10,38,14.50
2019,04,19,10,39,14.50
2019,04,19,10,40,14.50
2019,04,19,10,41,14.60
2019,04,19,10,42,14.60
2019,04,19,10,43,14.60
2019,04,19,10,44,14.70
2019,04,19,10,45,14.70
2019,04,19,10,46,14.70
2019,04,19,10,47,14.70
2019,04,19,10,48,14.70
2019,04,19,10,49,14.70
2019,04,19,10,50,14.60
2019,04,19,10,51,14.70
2019,04,19,10,52,14.70
2019,04,19,10,53,14.70
2019,04,19,10,54,14.60
2019,04,19,10,55,14.60
2019,04,19,10,56,14.60
2019,04,19,10,57,14.50
2019,04,19,10,58,14.50
2019,04,19,10,59,14.50
2019,04,19,11,00,14.50
2019,04,19,11,01,14.40
2019,04,19,11,02,14.40
2019,04,19,11,03,14.40
2019,04,19,11,04,14.40
2019,04,19,11,05,14.40
2019,04,19,11,06,14.40
2019,04,19,11,07,14.40
2019,04,19,11,08,14.40
2019,04,19,11,09,14.30
2019,04,19,11,10,14.30
2019,04,19,11,11,14.30
2019,04,19,11,12,14.30
2019,04,19,11,13,14.30
2019,04,19,11,14,14.30
2019,04,19,11,15,14.30
2019,04,19,11,16,14.30
2019,04,19,11,17,14.30
2019,04,19,11,18,14.40
2019,04,19,11,19,14.40
2019,04,19,11,20,14.40
2019,04,19,11,21,14.50
2019,04,19,11,22,14.50
2019,04,19,11,23,14.60
2019,04,19,11,24,14.60
2019,04,19,11,25,14.60
2019,04,19,11,26,14.70
2019,04,19,11,27,14.70
2019,04,19,11,28,14.70
2019,04,19,11,29,14.70
2019,04,19,11,30,14.70
2019,04,19,11,31,14.70
2019,04,19,11,32,14.70
2019,04,19,11,33,14.60
2019,04,19,11,34,14.60
2019,04,19,11,35,14.70
2019,04,19,11,36,14.60
2019,04,19,11,37,14.70
2019,04,19,11,38,14.70
2019,04,19,11,39,14.70
2019,04,19,11,40,14.70
2019,04,19,11,41,14.70
2019,04,19,11,42,14.70
2019,04,19,11,43,14.80
2019,04,19,11,44,14.80
2019,04,19,11,45,14.90
2019,04,19,11,46,15.00
2019,04,19,11,47,15.00
2019,04,19,11,48,15.00
2019,04,19,11,49,15.10
2019,04,19,11,50,15.10
2019,04,19,11,51,15.10
2019,04,19,11,52,15.00
2019,04,19,11,53,15.00
2019,04,19,11,54,15.00
2019,04,19,11,55,15.00
2019,04,19,11,56,15.00
2019,04,19,11,57,15.00
2019,04,19,11,58,14.90
2019,04,19,11,59,14.80
2019,04,19,12,00,14.80
2019,04,19,12,01,14.80
2019,04,19,12,02,14.80
2019,04,19,12,03,14.70
2019,04,19,12,04,14.70
2019,04,19,12,05,14.70
2019,04,19,12,06,14.60
2019,04,19,12,07,14.60
2019,04,19,12,08,14.60
2019,04,19,12,09,14.60
2019,04,19,12,10,14.60
2019,04,19,12,11,14.60
2019,04,19,12,12,14.60
2019,04,19,12,13,14.60
2019,04,19,12,14,14.60
2019,04,19,12,15,14.60
2019,04,19,12,16,14.60
2019,04,19,12,17,14.60
2019,04,19,12,18,14.60
2019,04,19,12,19,14.60
2019,04,19,12,20,14.60
2019,04,19,12,21,14.60
2019,04,19,12,22,14.60
2019,04,19,12,23,14.50
2019,04,19,12,24,14.50
2019,04,19,12,25,14.50
2019,04,19,12,26,14.50
2019,04,19,12,27,14.50
2019,04,19,12,28,14.50
2019,04,19,12,29,14.50
2019,04,19,12,30,14.50
2019,04,19,12,31,14.50
2019,04,19,12,32,14.50
2019,04,19,12,33,14.50
2019,04,19,12,34,14.50
2019,04,19,12,35,14.50
2019,04,19,12,36,14.50
2019,04,19,12,37,14.50
2019,04,19,12,38,14.50
2019,04,19,12,39,14.50
2019,04,19,12,40,14.50
2019,04,19,12,41,14.50
2019,04,19,12,42,14.50
2019,04,19,12,43,14.60
2019,04,19,12,44,14.60
2019,04,19,12,45,14.60
2019,04,19,12,46,14.60
2019,04,19,12,47,14.60
2019,04,19,12,48,14.60
2019,04,19,12,49,14.60
2019,04,19,12,50,14.60
2019,04,19,12,51,14.60
2019,04,19,12,52,14.60
2019,04,19,12,53,14.60
2019,04,19,12,54,14.70
2019,04,19,12,55,14.70
2019,04,19,12,56,14.80
2019,04,19,12,57,14.80
2019,04,19,12,58,14.80
2019,04,19,12,59,14.80
2019,04,19,13,00,14.80
2019,04,19,13,01,14.80
2019,04,19,13,02,14.80
2019,04,19,13,03,14.80
2019,04,19,13,04,14.80
2019,04,19,13,05,14.80
2019,04,19,13,06,14.90
2019,04,19,13,07,14.90
2019,04,19,13,08,14.90
2019,04,19,13,09,14.90
2019,04,19,13,10,14.90
2019,04,19,13,11,14.90
2019,04,19,13,12,14.90
2019,04,19,13,13,15.00
2019,04,19,13,14,15.00
2019,04,19,13,15,15.00
2019,04,19,13,16,15.00
2019,04,19,13,17,15.00
2019,04,19,13,18,15.00
2019,04,19,13,19,15.00
2019,04,19,13,20,15.00
2019,04,19,13,21,14.90
2019,04,19,13,22,14.90
2019,04,19,13,23,14.80
2019,04,19,13,24,14.80
2019,04,19,13,25,14.80
2019,04,19,13,26,14.80
2019,04,19,13,27,14.80
2019,04,19,13,28,14.90
2019,04,19,13,29,14.90
2019,04,19,13,30,14.90
2019,04,19,13,31,14.90
2019,04,19,13,32,14.90
2019,04,19,13,33,14.90
2019,04,19,13,34,14.90
2019,04,19,13,35,14.90
2019,04,19,13,36,14.90
2019,04,19,13,37,14.90
2019,04,19,13,38,15.00
2019,04,19,13,39,15.00
2019,04,19,13,40,15.10
2019,04,19,13,41,15.10
2019,04,19,13,42,15.10
2019,04,19,13,43,15.10
2019,04,19,13,44,15.10
2019,04,19,13,45,15.20
2019,04,19,13,46,15.20
2019,04,19,13,47,15.20
2019,04,19,13,48,15.20
2019,04,19,13,49,15.20
2019,04,19,13,50,15.20
2019,04,19,13,51,15.30
2019,04,19,13,52,15.30
2019,04,19,13,53,15.30
2019,04,19,13,54,15.30
2019,04,19,13,55,15.30
2019,04,19,13,56,15.30
2019,04,19,13,57,15.30
2019,04,19,13,58,15.30
2019,04,19,13,59,15.30
2019,04,19,14,00,15.40
2019,04,19,14,01,15.40
2019,04,19,14,02,15.40
2019,04,19,14,03,15.40
2019,04,19,14,04,15.40
2019,04,19,14,05,15.50
2019,04,19,14,06,15.50
2019,04,19,14,07,15.50
2019,04,19,14,08,15.60
2019,04,19,14,09,15.60
2019,04,19,14,10,15.60
2019,04,19,14,11,15.60
2019,04,19,14,12,15.60
2019,04,19,14,13,15.60
2019,04,19,14,14,15.60
2019,04,19,14,15,15.60
2019,04,19,14,16,15.60
2019,04,19,14,17,15.60
2019,04,19,14,18,15.60
2019,04,19,14,19,15.60
2019,04,19,14,20,15.50
2019,04,19,14,21,15.50
2019,04,19,14,22,15.40
2019,04,19,14,23,15.40
2019,04,19,14,24,15.30
2019,04,19,14,25,15.30
2019,04,19,14,26,15.30
2019,04,19,14,27,15.30
2019,04,19,14,28,15.30
2019,04,19,14,29,15.30
2019,04,19,14,30,15.30
2019,04,19,14,31,15.30
2019,04,19,14,32,15.30
2019,04,19,14,33,15.30
2019,04,19,14,34,15.30
2019,04,19,14,35,15.20
2019,04,19,14,36,15.20
2019,04,19,14,37,15.20
2019,04,19,14,38,15.20
2019,04,19,14,39,15.20
2019,04,19,14,40,15.20
2019,04,19,14,41,15.30
2019,04,19,14,42,15.30
2019,04,19,14,43,15.30
2019,04,19,14,44,15.30
2019,04,19,14,45,15.30
2019,04,19,14,46,15.40
2019,04,19,14,47,15.40
2019,04,19,14,48,15.40
2019,04,19,14,49,15.30
2019,04,19,14,50,15.30
2019,04,19,14,51,15.30
2019,04,19,14,52,15.30
2019,04,19,14,53,15.30
2019,04,19,14,54,15.30
2019,04,19,14,55,15.40
2019,04,19,14,56,15.30
2019,04,19,14,57,15.30
2019,04,19,14,58,15.40
2019,04,19,14,59,15.40
2019,04,19,15,00,15.50
2019,04,19,15,01,15.50
2019,04,19,15,02,15.50
2019,04,19,15,03,15.60
2019,04,19,15,04,15.70
2019,04,19,15,05,15.80
2019,04,19,15,06,15.80
2019,04,19,15,07,15.80
2019,04,19,15,08,15.90
2019,04,19,15,09,15.90
2019,04,19,15,10,15.90
2019,04,19,15,11,15.90
2019,04,19,15,12,15.90
2019,04,19,15,13,15.80
2019,04,19,15,14,15.80
2019,04,19,15,15,15.80
2019,04,19,15,16,15.80
2019,04,19,15,17,15.70
2019,04,19,15,18,15.70
2019,04,19,15,19,15.70
2019,04,19,15,20,15.60
2019,04,19,15,21,15.70
2019,04,19,15,22,15.70
2019,04,19,15,23,15.70
2019,04,19,15,24,15.70
2019,04,19,15,25,15.70
2019,04,19,15,26,15.70
2019,04,19,15,27,15.70
2019,04,19,15,28,15.80
2019,04,19,15,29,15.70
2019,04,19,15,30,15.50
2019,04,19,15,31,15.30
2019,04,19,15,32,15.10
2019,04,19,15,33,14.90
2019,04,19,15,34,14.70
2019,04,19,15,35,14.50
2019,04,19,15,36,14.30
2019,04,19,15,37,14.10
2019,04,19,15,38,14.00
2019,04,19,15,39,13.80
2019,04,19,15,40,13.70
2019,04,19,15,41,13.70
2019,04,19,15,42,13.70
2019,04,19,15,43,13.70
2019,04,19,15,44,13.70
2019,04,19,15,45,13.70
2019,04,19,15,46,13.70
2019,04,19,15,47,13.70
2019,04,19,15,48,13.70
2019,04,19,15,49,13.70
2019,04,19,15,50,13.80
2019,04,19,15,51,13.80
2019,04,19,15,52,13.80
2019,04,19,15,53,13.80
2019,04,19,15,54,13.80
2019,04,19,15,55,13.70
2019,04,19,15,56,13.70
2019,04,19,15,57,13.70
2019,04,19,15,58,13.70
2019,04,19,15,59,13.70
2019,04,19,16,00,13.60
2019,04,19,16,01,13.60
2019,04,19,16,02,13.50
2019,04,19,16,03,13.50
2019,04,19,16,04,13.40
2019,04,19,16,05,13.40
2019,04,19,16,06,13.50
2019,04,19,16,07,13.50
2019,04,19,16,08,13.60
2019,04,19,16,09,13.60
2019,04,19,16,10,13.60
2019,04,19,16,11,13.50
2019,04,19,16,12,13.50
2019,04,19,16,13,13.50
2019,04,19,16,14,13.50
2019,04,19,16,15,13.50
2019,04,19,16,16,13.40
2019,04,19,16,17,13.30
2019,04,19,16,18,13.30
2019,04,19,16,19,13.40
2019,04,19,16,20,13.40
2019,04,19,16,21,13.40
2019,04,19,16,22,13.50
2019,04,19,16,23,13.60
2019,04,19,16,24,13.70
2019,04,19,16,25,13.80
2019,04,19,16,26,13.90
2019,04,19,16,27,14.00
2019,04,19,16,28,14.10
2019,04,19,16,29,14.20
2019,04,19,16,30,14.20
2019,04,19,16,31,14.20
2019,04,19,16,32,14.20
2019,04,19,16,33,14.10
2019,04,19,16,34,14.10
2019,04,19,16,35,14.10
2019,04,19,16,36,14.10
2019,04,19,16,37,14.00
2019,04,19,16,38,14.00
2019,04,19,16,39,14.00
2019,04,19,16,40,14.00
2019,04,19,16,41,14.00
2019,04,19,16,42,13.90
2019,04,19,16,43,13.90
2019,04,19,16,44,13.80
2019,04,19,16,45,13.70
2019,04,19,16,46,13.70
2019,04,19,16,47,13.60
2019,04,19,16,48,13.50
2019,04,19,16,49,13.40
2019,04,19,16,50,13.40
2019,04,19,16,51,13.30
2019,04,19,16,52,13.30
2019,04,19,16,53,13.40
2019,04,19,16,54,13.40
2019,04,19,16,55,13.40
2019,04,19,16,56,13.50
2019,04,19,16,57,13.50
2019,04,19,16,58,13.50
2019,04,19,16,59,13.60
2019,04,19,17,00,13.60
2019,04,19,17,01,13.60
2019,04,19,17,02,13.50
2019,04,19,17,03,13.50
2019,04,19,17,04,13.60
2019,04,19,17,05,13.60
2019,04,19,17,06,13.70
2019,04,19,17,07,13.70
2019,04,19,17,08,13.70
2019,04,19,17,09,13.70
2019,04,19,17,10,13.70
2019,04,19,17,11,13.70
2019,04,19,17,12,13.60
2019,04,19,17,13,13.60
2019,04,19,17,14,13.70
2019,04,19,17,15,13.70
2019,04,19,17,16,13.60
2019,04,19,17,17,13.60
2019,04,19,17,18,13.50
2019,04,19,17,19,13.50
2019,04,19,17,20,13.50
2019,04,19,17,21,13.50
2019,04,19,17,22,13.40
2019,04,19,17,23,13.40
2019,04,19,17,24,13.30
2019,04,19,17,25,13.20
2019,04,19,17,26,13.10
2019,04,19,17,27,13.00
2019,04,19,17,28,13.00
2019,04,19,17,29,12.90
2019,04,19,17,30,12.90
2019,04,19,17,31,12.80
2019,04,19,17,32,12.80
2019,04,19,17,33,12.80
2019,04,19,17,34,12.80
2019,04,19,17,35,12.90
2019,04,19,17,36,12.90
2019,04,19,17,37,13.00
2019,04,19,17,38,13.00
2019,04,19,17,39,13.10
2019,04,19,17,40,13.20
2019,04,19,17,41,13.30
2019,04,19,17,42,13.30
2019,04,19,17,43,13.30
2019,04,19,17,44,13.30
2019,04,19,17,45,13.30
2019,04,19,17,46,13.30
2019,04,19,17,47,13.30
2019,04,19,17,48,13.30
2019,04,19,17,49,13.20
2019,04,19,17,50,13.10
2019,04,19,17,51,13.10
2019,04,19,17,52,13.10
2019,04,19,17,53,13.10
2019,04,19,17,54,13.00
2019,04,19,17,55,12.90
2019,04,19,17,56,12.90
2019,04,19,17,57,12.80
2019,04,19,17,58,12.70
2019,04,19,17,59,12.60
2019,04,19,18,00,12.60
2019,04,19,18,01,12.50
2019,04,19,18,02,12.50
2019,04,19,18,03,12.60
2019,04,19,18,04,12.70
2019,04,19,18,05,12.70
2019,04,19,18,06,12.80
2019,04,19,18,07,12.90
2019,04,19,18,08,12.90
2019,04,19,18,09,12.90
2019,04,19,18,10,13.00
2019,04,19,18,11,13.00
2019,04,19,18,12,12.90
2019,04,19,18,13,12.90
2019,04,19,18,14,12.90
2019,04,19,18,15,13.00
2019,04,19,18,16,13.00
2019,04,19,18,17,13.00
2019,04,19,18,18,13.00
2019,04,19,18,19,13.00
2019,04,19,18,20,13.00
2019,04,19,18,21,13.00
2019,04,19,18,22,13.00
2019,04,19,18,23,13.00
2019,04,19,18,24,13.00
2019,04,19,18,25,12.90
2019,04,19,18,26,12.90
2019,04,19,18,27,12.90
2019,04,19,18,28,12.90
2019,04,19,18,29,13.00
2019,04,19,18,30,13.10
2019,04,19,18,31,13.20
2019,04,19,18,32,13.20
2019,04,19,18,33,13.30
2019,04,19,18,34,13.20
2019,04,19,18,35,13.20
2019,04,19,18,36,13.20
2019,04,19,18,37,13.20
2019,04,19,18,38,13.10
2019,04,19,18,39,13.00
2019,04,19,18,40,13.00
2019,04,19,18,41,12.90
2019,04,19,18,42,12.90
2019,04,19,18,43,12.80
2019,04,19,18,44,12.80
2019,04,19,18,45,12.90
2019,04,19,18,46,12.90
2019,04,19,18,47,13.00
2019,04,19,18,48,13.10
2019,04,19,18,49,13.10
2019,04,19,18,50,13.20
2019,04,19,18,51,13.20
2019,04,19,18,52,13.30
2019,04,19,18,53,13.30
2019,04,19,18,54,13.30
2019,04,19,18,55,13.30
2019,04,19,18,56,13.30
2019,04,19,18,57,13.30
2019,04,19,18,58,13.30
2019,04,19,18,59,13.30
2019,04,19,19,00,13.40
2019,04,19,19,01,13.40
2019,04,19,19,02,13.40
2019,04,19,19,03,13.50
2019,04,19,19,04,13.50
2019,04,19,19,05,13.60
2019,04,19,19,06,13.60
2019,04,19,19,07,13.60
2019,04,19,19,08,13.60
2019,04,19,19,09,13.50
2019,04,19,19,10,13.50
2019,04,19,19,11,13.40
2019,04,19,19,12,13.40
2019,04,19,19,13,13.30
2019,04,19,19,14,13.20
2019,04,19,19,15,13.20
2019,04,19,19,16,13.10
2019,04,19,19,17,13.10
2019,04,19,19,18,13.00
2019,04,19,19,19,13.00
2019,04,19,19,20,12.90
2019,04,19,19,21,12.90
2019,04,19,19,22,12.80
2019,04,19,19,23,12.80
2019,04,19,19,24,12.80
2019,04,19,19,25,12.80
2019,04,19,19,26,12.70
2019,04,19,19,27,12.70
2019,04,19,19,28,12.60
2019,04,19,19,29,12.60
2019,04,19,19,30,12.60
2019,04,19,19,31,12.60
2019,04,19,19,32,12.50
2019,04,19,19,33,12.50
2019,04,19,19,34,12.40
2019,04,19,19,35,12.40
2019,04,19,19,36,12.30
2019,04,19,19,37,12.30
2019,04,19,19,38,12.30
2019,04,19,19,39,12.30
2019,04,19,19,40,12.20
2019,04,19,19,41,12.20
2019,04,19,19,42,12.20
2019,04,19,19,43,12.20
2019,04,19,19,44,12.20
2019,04,19,19,45,12.20
2019,04,19,19,46,12.20
2019,04,19,19,47,12.20
2019,04,19,19,48,12.20
2019,04,19,19,49,12.20
2019,04,19,19,50,12.20
